Peralta, NM (87042)

6:34 AM MST on February 07, 2016 (GMT -0700)
Peralta | | Change Station
CLOSE
Current Station
Personal Weather Station
Location: Peralta, NM
Elevation: 4882 ft
Nearby Weather Stations

Elev 4882 ft 34.84 °N, 106.67 °W | Updated 11 seconds ago

Clear
Clear
16.7 °F
Feels Like 17 °F
N
0.0
Wind Variable Wind from South
Gusts 0.0 mph

Today
High -- | Low -- °F
--% Chance of Precip.
Yesterday
High -- | Low -- °F
Precip. -- in
Pressure 30.32 in
Visibility 10.0 miles
Clouds Clear
Windchill 17 °F
Dew Point 8 °F
Humidity 69%
Rainfall 0.00 in
Snow Depth Not available.
7:00 AM 5:41 PM
Waning Crescent, 1% visible
METAR KABQ 071252Z 36007KT 10SM CLR 01/M10 A3034 RMK AO2 SLP268 T00061100
Pressure 30.32 in
Visibility 10.0 miles
Clouds Clear
Windchill 17 °F
Dew Point 8 °F
Humidity 69%
Rainfall 0.00 in
Snow Depth Not available.
7:00 AM 5:41 PM
Waning Crescent, 1% visible
METAR KABQ 071252Z 36007KT 10SM CLR 01/M10 A3034 RMK AO2 SLP268 T00061100

10-Day Weather Forecast

Almanac

Astronomy

Feb. 07, 2016 Rise Set
Actual Time
Civil Twilight
Nautical Twilight
Astronomical Twilight
Moon
Length of Visible Light
Length of Day
Tomorrow will be .
, % of the Moon is Illuminated

Today's Extremes

State Highs State Lows

Community

WunderPhotos

Upload Photos

1,891,190 photos uploaded!

WunderBlog® & News

Nearby

Air Quality

  Air Quality AQ Index Pollutant
Not available.

Snow Depth

Station Depth Elevation

Earthquake Activity

City Distance Mag. Time & Date
Minimum magnitude displayed is 2.5.

Coastal Water Temperatures

Place Temperature

Stations

Nearby Weather Stations

Station Location Temp. Windchill Dew Point Humidity Wind Precip. Elev Updated Type
                   

Watches & Warnings

There are currently no watches in effect.